Change the Weather History Date:

Monday, April 29, 2013

  Actual Average Record
Temperature  
Mean Temperature 35 °F 37 °F  
Max Temperature 44 °F 42 °F 53 °F (1981)
Min Temperature 26 °F 32 °F 21 °F (1971)
Degree Days  
Heating Degree Days 30 28  
Month to date heating degree days 900 902  
Since 1 July heating degree days 8368 8205  
Cooling Degree Days 0    
Month to date cooling degree days 0  
Year to date cooling degree days 0  
Moisture  
Dew Point 26 °F    
Average Humidity 69    
Maximum Humidity 88    
Minimum Humidity 39    
Precipitation  
Precipitation 0.00 in 0.08 in 0.55 in (2004)
Month to date precipitation 1.94 2.35  
Year to date precipitation 11.56 11.19  
Snow  
Snow 0.00 in 0.10 in 1.10 in (1959)
Month to date snowfall 2.1 6.5  
Since 1 July snowfall 64.2 71.7  
Snow Depth 0.00 in    
Sea Level Pressure  
Sea Level Pressure 30.25 in    
Wind  
Wind Speed 0 mph (NNE)    
Max Wind Speed 20 mph    
Max Gust Speed 23 mph    
Visibility 10 miles    
Events      
T = Trace of Precipitation, MM = Missing Value Source: NWS Daily Summary

Daily Weather History Graph

Daily Weather History Graph

Search for Another Location

Airport or City:

Trip Planner

Search our weather history database for the weather conditions in past years. The results will help you decide how hot, cold, wet, or windy it might be!

Date:

Astronomy

Apr. 29, 2013 Rise Set
Actual Time 7:13 AM AKDT 10:24 PM AKDT
Civil Twilight 6:30 AM AKDT 11:07 PM AKDT
Nautical Twilight 5:33 AM AKDT 12:05 AM AKDT
Astronomical Twilight 4:11 AM AKDT 1:30 AM AKDT
Moon 2:22 AM AKDT 10:30 AM AKDT
Length of Visible Light 16h 36m
Length of Day
15h 11m
Waning Gibbous, 79% of the Moon is Illuminated
Apr 29
Waning Gibbous
May 2
Last Quarter
May 9
New
May 17
First Quarter
May 24
Full

Hourly Weather History & Observations

Time (AKDT) Temp. Windchill Dew Point Humidity Pressure Visibility Wind Dir Wind Speed Gust Speed Precip Events Conditions
12:53 AM 28.9 °F 19.8 °F 23.0 °F 78% 30.39 in 10.0 mi North 10.4 mph - N/A   Overcast
1:53 AM 30.0 °F 18.7 °F 23.0 °F 75% 30.37 in 10.0 mi North 16.1 mph - N/A   Overcast
2:53 AM 30.0 °F 20.5 °F 24.1 °F 79% 30.37 in 10.0 mi North 11.5 mph - N/A   Overcast
3:53 AM 28.9 °F 18.6 °F 24.1 °F 82% 30.36 in 10.0 mi North 12.7 mph - N/A   Overcast
4:53 AM 28.9 °F 19.2 °F 23.0 °F 78% 30.35 in 10.0 mi North 11.5 mph - N/A   Overcast
5:53 AM 28.0 °F 18.1 °F 23.0 °F 81% 30.33 in 10.0 mi North 11.5 mph - N/A   Overcast
6:53 AM 28.0 °F 17.5 °F 23.0 °F 81% 30.31 in 10.0 mi North 12.7 mph - N/A   Overcast
7:13 AM 26.6 °F 18.2 °F 21.2 °F 80% 30.30 in 10.0 mi North 8.1 mph - N/A   Mostly Cloudy
7:53 AM 27.0 °F 17.3 °F 21.9 °F 81% 30.30 in 10.0 mi North 10.4 mph - N/A   Mostly Cloudy
8:53 AM 28.9 °F 19.8 °F 23.0 °F 78% 30.29 in 10.0 mi NE 10.4 mph - N/A   Mostly Cloudy
9:53 AM 32.0 °F 24.2 °F 24.1 °F 73% 30.29 in 10.0 mi NNE 9.2 mph - N/A   Mostly Cloudy
10:53 AM 33.1 °F 26.1 °F 24.1 °F 70% 30.28 in 10.0 mi NE 8.1 mph - N/A   Mostly Cloudy
11:53 AM 33.1 °F 27.7 °F 24.1 °F 70% 30.27 in 10.0 mi ESE 5.8 mph - N/A   Mostly Cloudy
12:53 PM 36.0 °F 32.1 °F 25.0 °F 64% 30.26 in 10.0 mi East 4.6 mph - N/A   Mostly Cloudy
1:53 PM 39.0 °F 34.0 °F 24.1 °F 55% 30.25 in 10.0 mi East 6.9 mph - N/A   Mostly Cloudy
2:53 PM 42.1 °F 37.1 °F 24.1 °F 49% 30.23 in 10.0 mi ENE 8.1 mph - N/A   Clear
3:53 PM 45.0 °F 41.2 °F 28.0 °F 52% 30.21 in 10.0 mi ENE 6.9 mph - N/A   Mostly Cloudy
4:53 PM 48.9 °F - 28.0 °F 44% 30.19 in 10.0 mi Variable 5.8 mph - N/A   Mostly Cloudy
5:53 PM 45.0 °F 40.6 °F 28.9 °F 53% 30.17 in 10.0 mi NE 8.1 mph - N/A   Clear
6:53 PM 45.0 °F 38.5 °F 30.9 °F 58% 30.16 in 10.0 mi NNE 13.8 mph - N/A   Clear
7:53 PM 39.9 °F 31.4 °F 30.0 °F 68% 30.15 in 10.0 mi North 16.1 mph - N/A   Clear
8:53 PM 39.0 °F 31.8 °F 30.9 °F 73% 30.14 in 10.0 mi NNE 11.5 mph - N/A   Clear
9:53 PM 36.0 °F 27.5 °F 28.9 °F 76% 30.11 in 10.0 mi NNE 12.7 mph - N/A   Clear
10:53 PM 34.0 °F - 28.0 °F 79% 30.11 in 10.0 mi Calm Calm - N/A   Clear
11:53 PM 30.0 °F - 27.0 °F 88% 30.11 in 10.0 mi Calm Calm - N/A   Clear